Nausori, Fiji

2:12 AM +13 on November 23, 2017 (GMT +1300)
Nausori International

Weather History for NFNA - January, 2010

Change the Weather History Date:

Monday, January 4, 2010

  Actual Average Record
Temperature  
Mean Temperature 78 °F -  
Max Temperature 82 °F 87 °F - ()
Min Temperature 73 °F 75 °F - ()
Cooling Degree Days 13    
Growing Degree Days 28 (Base 50)    
Moisture  
Dew Point 71 °F    
Average Humidity 77    
Maximum Humidity 94    
Minimum Humidity 60    
Precipitation  
Precipitation 0.00 in 0.41 in - ()
Sea Level Pressure  
Sea Level Pressure 29.85 in    
Wind  
Wind Speed 6 mph ()    
Max Wind Speed 17 mph    
Max Gust Speed -    
Visibility 12.0 miles    
Events Rain    
T = Trace of Precipitation, MM = Missing Value Source: Averaged Metar Reports

Daily Weather History Graph

Daily Weather History Graph

Search for Another Location

Airport or City:

Trip Planner

Search our weather history database for the weather conditions in past years. The results will help you decide how hot, cold, wet, or windy it might be!

Date:

Astronomy

Jan. 04, 2010 Rise Set
Actual Time 6:35 AM +13 7:45 PM +13
Civil Twilight 6:10 AM +13 8:09 PM +13
Nautical Twilight 5:42 AM +13 8:38 PM +13
Astronomical Twilight 5:13 AM +13 9:07 PM +13
Moon 10:38 PM +13 (1/4) 9:48 AM +13 (1/4)
Length of Visible Light 13h 58m
Length of Day
13h 10m
Waning Gibbous, 86% of the Moon is Illuminated
Jan 4
Waning Gibbous
Jan 7
Last Quarter
Jan 15
New
Jan 23
First Quarter
Jan 30
Full

Hourly Weather History & Observations

Time (+13) Temp. Heat Index Dew Point Humidity Pressure Visibility Wind Dir Wind Speed Gust Speed Precip Events Conditions
12:00 AM 77.0 °F - 73.4 °F 89% 29.92 in 24.9 mi Calm Calm - N/A   Mostly Cloudy
1:00 AM 77 °F - 70 °F 74% 29.91 in 12 mi Calm Calm - -   Partly Cloudy
1:00 AM 77.0 °F - 69.8 °F 78% 29.89 in 24.9 mi Calm Calm - N/A   Mostly Cloudy
2:00 AM 77.0 °F - 71.6 °F 83% 29.89 in 24.9 mi Calm Calm - N/A   Mostly Cloudy
3:00 AM 77.0 °F - 71.6 °F 83% 29.86 in 24.9 mi SE 5.8 mph - N/A   Mostly Cloudy
4:00 AM 75 °F - 74 °F 94% 29.86 in 12 mi East 11.5 mph - - Rain Light Rain Showers
4:00 AM 75.2 °F - 73.4 °F 94% 29.86 in 24.9 mi East 11.5 mph - N/A   Mostly Cloudy
5:00 AM 75.2 °F - 73.4 °F 94% 29.83 in 24.9 mi SE 5.8 mph - N/A   Mostly Cloudy
6:00 AM 75.2 °F - 73.4 °F 94% 29.86 in 24.9 mi Calm Calm - N/A   Mostly Cloudy
7:00 AM 76 °F - 72 °F 84% 29.87 in 31 mi SE 5.8 mph - - Rain Light Rain Showers
7:00 AM 77.0 °F - 71.6 °F 83% 29.86 in 31.1 mi SE 5.8 mph - N/A   Mostly Cloudy
8:00 AM 78.8 °F - 71.6 °F 78% 29.89 in 31.1 mi SE 5.8 mph - N/A   Mostly Cloudy
9:00 AM 78.8 °F - 73.4 °F 83% 29.89 in 31.1 mi ESE 11.5 mph - N/A   Scattered Clouds
10:00 AM 81 °F - 71 °F 66% 29.88 in 31 mi East 17.3 mph - -   Partly Cloudy
10:00 AM 80.6 °F 84.6 °F 71.6 °F 74% 29.86 in 31.1 mi East 17.3 mph - N/A   Scattered Clouds
11:00 AM 80.6 °F 84.6 °F 71.6 °F 74% 29.86 in 31.1 mi East 16.1 mph - N/A   Scattered Clouds
12:00 PM 80.6 °F 83.9 °F 69.8 °F 70% 29.86 in 31.1 mi ESE 11.5 mph - N/A   Mostly Cloudy
1:00 PM 82 °F - 70 °F 60% 29.85 in 31 mi SE 13.8 mph - -   Partly Cloudy
1:00 PM 82.4 °F 86.3 °F 69.8 °F 66% 29.83 in 31.1 mi SE 13.8 mph - N/A   Scattered Clouds
2:00 PM 82.4 °F 86.3 °F 69.8 °F 66% 29.83 in 31.1 mi ESE 11.5 mph - N/A   Scattered Clouds
3:00 PM 82.4 °F 87.2 °F 71.6 °F 70% 29.83 in 31.1 mi ESE 11.5 mph - N/A   Scattered Clouds
4:00 PM 81 °F - 70 °F 62% 29.82 in 31 mi ESE 11.5 mph - -   Partly Cloudy
4:00 PM 80.6 °F 83.9 °F 69.8 °F 70% 29.80 in 31.1 mi ESE 11.5 mph - N/A   Mostly Cloudy
5:00 PM 80.6 °F 83.9 °F 69.8 °F 70% 29.80 in 31.1 mi ESE 11.5 mph - N/A   Scattered Clouds
6:00 PM 80.6 °F 84.6 °F 71.6 °F 74% 29.80 in 31.1 mi ESE 11.5 mph - N/A   Scattered Clouds
7:00 PM 80 °F - 69 °F 62% 29.83 in 31 mi ESE 11.5 mph - -   Partly Cloudy
7:00 PM 80.6 °F 83.9 °F 69.8 °F 70% 29.80 in 31.1 mi ESE 11.5 mph - N/A   Partly Cloudy
8:00 PM 78.8 °F - 69.8 °F 74% 29.83 in 31.1 mi ESE 10.4 mph - N/A   Partly Cloudy
9:00 PM 77.0 °F - 69.8 °F 78% 29.86 in 24.9 mi ESE 4.6 mph - N/A   Partly Cloudy
10:00 PM 74 °F - 70 °F 83% 29.86 in 12 mi Calm Calm - -   Partly Cloudy
10:00 PM 75.2 °F - 69.8 °F 83% 29.86 in 24.9 mi Calm Calm - N/A   Partly Cloudy
11:00 PM 73.4 °F - 69.8 °F 88% 29.86 in 24.9 mi Calm Calm - N/A   Partly Cloudy